Weather History for Palma de Mallorca, Spain

Change the Weather History Date:

Tuesday, February 19, 2013

  Actual Average Record
Temperature  
Mean Temperature 52 °F -  
Max Temperature 59 °F 60 °F 66 °F (2000)
Min Temperature 44 °F 40 °F 28 °F (2005)
Degree Days  
Heating Degree Days 14    
Growing Degree Days 2 (Base 50)    
Moisture  
Dew Point 46 °F    
Average Humidity 82    
Maximum Humidity 100    
Minimum Humidity 50    
Precipitation  
Precipitation 0.00 in 0.05 in - ()
Sea Level Pressure  
Sea Level Pressure 29.96 in    
Wind  
Wind Speed 5 mph ()    
Max Wind Speed 13 mph    
Max Gust Speed -    
Visibility 6.8 miles    
Events      
Averages and records for this station are not official NWS values.
T = Trace of Precipitation, MM = Missing Value Source: Averaged Metar Reports

Daily Weather History Graph

Daily Weather History Graph

Search for Another Location

Airport:

Trip Planner

Search our weather history database for the weather conditions in past years. The results will help you decide how hot, cold, wet, or windy it might be!

Date:

Astronomy

Feb. 19, 2013 Rise Set
Actual Time 7:36 AM CET 6:30 PM CET
Civil Twilight 7:08 AM CET 6:57 PM CET
Nautical Twilight 6:37 AM CET 7:29 PM CET
Astronomical Twilight 6:06 AM CET 8:00 PM CET
Moon 12:50 PM CET (2/19) 2:54 AM CET (2/19)
Length of Visible Light 11h 48m
Length of Day
10h 54m
Waxing Gibbous, 65% of the Moon is Illuminated
Feb 19
Waxing Gibbous
Feb 25
Full
Mar 4
Last Quarter
Mar 11
New
Mar 19
First Quarter

Hourly Weather History & Observations

Time (CET) Temp. Windchill Dew Point Humidity Pressure Visibility Wind Dir Wind Speed Gust Speed Precip Events Conditions
12:00 AM 50.0 °F - 50.0 °F 100% 29.98 in 6.2 mi NE 3.5 mph - N/A   Scattered Clouds
12:30 AM 50.0 °F - 48.2 °F 94% 29.98 in 6.2 mi NNE 3.5 mph - N/A   Scattered Clouds
1:00 AM 47 °F - 46 °F 92% 29.98 in 12 mi NNE 2.3 mph - -   Scattered Clouds
1:00 AM 50.0 °F - 48.2 °F 94% 29.98 in 6.2 mi ENE 6.9 mph - N/A   Scattered Clouds
1:30 AM 50.0 °F - 48.2 °F 94% 29.98 in 6.2 mi NE 2.3 mph - N/A   Scattered Clouds
2:00 AM 48.2 °F - 48.2 °F 100% 29.98 in 6.2 mi Calm Calm - N/A   Mostly Cloudy
2:30 AM 48.2 °F - 46.4 °F 93% 29.98 in 6.2 mi ENE 5.8 mph - N/A   Scattered Clouds
3:00 AM 48.2 °F - 46.4 °F 93% 29.95 in 6.2 mi ENE 5.8 mph - N/A   Scattered Clouds
3:30 AM 48.2 °F - 46.4 °F 93% 29.95 in 6.2 mi Variable 1.2 mph - N/A   Partly Cloudy
4:00 AM 48.2 °F - 46.4 °F 93% 29.98 in 6.2 mi Variable 2.3 mph - N/A   Partly Cloudy
4:30 AM 46.4 °F 44.3 °F 46.4 °F 100% 29.98 in 6.2 mi East 4.6 mph - N/A   Scattered Clouds
5:00 AM 46.4 °F 45.2 °F 46.4 °F 100% 29.98 in 6.2 mi ENE 3.5 mph - N/A   Scattered Clouds
5:30 AM 46.4 °F - 46.4 °F 100% 29.98 in 6.2 mi East 1.2 mph - N/A   Scattered Clouds
6:00 AM 48.2 °F - 46.4 °F 93% 29.98 in 6.2 mi ENE 2.3 mph - N/A   Scattered Clouds
6:30 AM 50.0 °F - 48.2 °F 94% 29.98 in 6.2 mi Variable 1.2 mph - N/A   Mostly Cloudy
7:00 AM 48 °F - 46 °F 91% 29.98 in 9 mi ESE 2.3 mph - -   Scattered Clouds
7:00 AM 50.0 °F - 48.2 °F 94% 29.98 in 6.2 mi East 5.8 mph - N/A   Mostly Cloudy
7:30 AM 48.2 °F - 48.2 °F 100% 29.98 in 6.2 mi ENE 6.9 mph - N/A   Mostly Cloudy
8:00 AM 50.0 °F - 50.0 °F 100% 29.98 in 6.2 mi East 4.6 mph - N/A   Scattered Clouds
8:30 AM 51.8 °F - 50.0 °F 94% 29.98 in 6.2 mi ENE 8.1 mph - N/A   Scattered Clouds
9:00 AM 53.6 °F - 51.8 °F 94% 29.98 in 6.2 mi ENE 6.9 mph - N/A   Partly Cloudy
10:00 AM 55.4 °F - 50.0 °F 82% 29.98 in 6.2 mi ENE 10.4 mph - N/A   Partly Cloudy
10:30 AM 55.4 °F - 50.0 °F 82% 29.98 in 6.2 mi East 9.2 mph - N/A   Partly Cloudy
11:00 AM 57.2 °F - 50.0 °F 77% 29.98 in 6.2 mi East 10.4 mph - N/A   Partly Cloudy
11:30 AM 57.2 °F - 50.0 °F 77% 29.98 in 6.2 mi East 8.1 mph - N/A   Scattered Clouds
12:00 PM 59.0 °F - 50.0 °F 72% 29.98 in 6.2 mi East 10.4 mph - N/A   Scattered Clouds
12:30 PM 59.0 °F - 48.2 °F 67% 29.98 in 6.2 mi ENE 10.4 mph - N/A   Scattered Clouds
1:00 PM 58 °F - 44 °F 50% 29.99 in 19 mi East 12.7 mph - -   Partly Cloudy
1:00 PM 59.0 °F - 48.2 °F 67% 29.98 in 6.2 mi East 11.5 mph - N/A   Scattered Clouds
1:30 PM 60.8 °F - 48.2 °F 63% 29.95 in 6.2 mi East 11.5 mph - N/A   Partly Cloudy
2:00 PM 60.8 °F - 46.4 °F 59% 29.95 in 6.2 mi East 11.5 mph - N/A   Partly Cloudy
2:30 PM 59.0 °F - 44.6 °F 59% 29.95 in 6.2 mi East 11.5 mph - N/A   Partly Cloudy
3:30 PM 59.0 °F - 41.0 °F 51% 29.95 in 6.2 mi East 9.2 mph - N/A   Partly Cloudy
4:00 PM 57.2 °F - 42.8 °F 59% 29.92 in 6.2 mi East 9.2 mph - N/A   Partly Cloudy
4:30 PM 57.2 °F - 42.8 °F 59% 29.92 in 6.2 mi East 9.2 mph - N/A   Partly Cloudy
5:00 PM 57.2 °F - 44.6 °F 63% 29.92 in 6.2 mi East 6.9 mph - N/A   Partly Cloudy
5:30 PM 55.4 °F - 44.6 °F 67% 29.92 in 6.2 mi East 9.2 mph - N/A   Partly Cloudy
6:00 PM 53.6 °F - 46.4 °F 77% 29.92 in 6.2 mi East 5.8 mph - N/A   Partly Cloudy
6:30 PM 53.6 °F - 44.6 °F 72% 29.92 in 6.2 mi East 6.9 mph - N/A   Partly Cloudy
7:00 PM 50 °F - 42 °F 65% 29.95 in 16 mi ENE 5.8 mph - -   Scattered Clouds
7:00 PM 51.8 °F - 44.6 °F 76% 29.95 in 6.2 mi ENE 4.6 mph - N/A   Partly Cloudy
7:30 PM 50.0 °F - 44.6 °F 82% 29.95 in 6.2 mi NE 6.9 mph - N/A   Partly Cloudy
8:00 PM 50.0 °F - 42.8 °F 76% 29.95 in 6.2 mi ENE 3.5 mph - N/A   Partly Cloudy
8:30 PM 50.0 °F - 44.6 °F 82% 29.95 in 6.2 mi East 3.5 mph - N/A   Partly Cloudy
9:00 PM 48.2 °F - 42.8 °F 82% 29.95 in 6.2 mi ENE 3.5 mph - N/A   Partly Cloudy
9:30 PM 48.2 °F - 42.8 °F 82% 29.95 in 6.2 mi ENE 4.6 mph - N/A   Partly Cloudy
10:00 PM 46.4 °F 45.2 °F 42.8 °F 87% 29.95 in 6.2 mi East 3.5 mph - N/A   Partly Cloudy
10:30 PM 46.4 °F 45.2 °F 42.8 °F 87% 29.98 in 6.2 mi East 3.5 mph - N/A   Partly Cloudy
11:00 PM 46.4 °F 43.5 °F 42.8 °F 87% 29.95 in 6.2 mi ENE 5.8 mph - N/A   Partly Cloudy
11:30 PM 46.4 °F 45.2 °F 42.8 °F 87% 29.95 in 6.2 mi ENE 3.5 mph - N/A   Partly Cloudy